User: anonymous   Login
Location: Unspecified
(0.0000°N, 0.0000°E)
Time: 22:47:09
(UTC+02:00)
Language:

Iridium 15 - Orbit

View from above orbital plane
View from above orbital plane
View from above satellite
View from above satellite

Ground track
Ground track

The orbit data is extracted from the following two-line orbital elements,

1 24869U 97034A   17084.90807684 -.00000009 +00000-0 -10391-4 0  9993
2 24869 086.3947 056.9091 0001945 084.1733 275.9685 14.34216323031705
Epoch (UTC): 25 March 2017 21:47:37
Eccentricity: 0.0001945
inclination: 86.3947°
perigee height: 776 km
apogee height: 779 km
right ascension of ascending node: 56.9091°
argument of perigee: 84.1733°
revolutions per day: 14.34216323
mean anomaly at epoch: 275.9685°
orbit number at epoch: 3170

The dashed part of the orbit path shows where the satellite is in the earth's shadow,  

DLR